Regional Weather Roundup
Issued by NWS

Home | Current Version | Previous Version | Graphics & Text | Print | Product List | Glossary On
Versions: 1 2 3 4 5 6 7 8 9 10 11 12 13 14 15 16 17 18 19 20 21 22 23 24 25 26 27 28 29 30 31 32 33 34 35 36 37 38 39 40 41 42 43 44 45 46 47 48 49 50
000
ASUS43 KLMK 302110
RWRKY
KENTUCKY REGIONAL WEATHER ROUNDUP
NATIONAL WEATHER SERVICE LOUISVILLE KY
500 PM EDT TUE SEP 30 2014

NOTE "FAIR" INDICATES FEW OR NO CLOUDS BELOW 12,000 FEET
WITH NO SIGNIFICANT WEATHER AND/OR OBSTRUCTIONS TO VISIBILITY.

KYZ001>023-026-027-061>063-070>075-302200-
WESTERN AND SOUTH CENTRAL KENTUCKY

CITY           SKY/WX    TMP DP  RH WIND       PRES   REMARKS
PADUCAH        SUNNY     86  54  33 NE5       29.88F
HENDERSON      NOT AVBL
OWENSBORO      MOSUNNY   86  53  32 N7        29.88F
HOPKINSVILLE   MOSUNNY   86  51  30 E7        29.88F
BOWLING GREEN  SUNNY     87  50  27 NE5       29.89F
GLASGOW        SUNNY     84  49  28 N3        29.89F
$$

KYZ024-025-028>034-038-045-046-053-302200-
NORTH CENTRAL KENTUCKY

CITY           SKY/WX    TMP DP  RH WIND       PRES   REMARKS
LOUISVILLE/SDF PTSUNNY   84  56  38 NW9       29.87F
LOUISVILLE/LOU MOSUNNY   84  55  36 NW9       29.88F
FORT KNOX      MOSUNNY   83  55  38 NW7       29.88F
$$

KYZ035>037-039>044-047>052-055>060-089>105-302200-
NORTHEAST KENTUCKY

CITY           SKY/WX    TMP DP  RH WIND       PRES   REMARKS
LEXINGTON      SUNNY     83  55  38 NW7       29.89F
COVINGTON      PTSUNNY   76  57  51 N13       29.90F
FRANKFORT      PTSUNNY   80  54  40 NW9       29.88F
$$

KYZ054-064>069-076>088-106>120-302200-
SOUTHEAST KENTUCKY

CITY           SKY/WX    TMP DP  RH WIND       PRES   REMARKS
JACKSON        SUNNY     79  56  45 CALM      29.92S
LONDON         MOSUNNY   82  52  35 NE3       29.92F
SOMERSET       MOSUNNY   81  46  30 N3        29.91F
MIDDLESBORO    SUNNY     80  54  39 N6        29.92S
MONTICELLO     CLEAR     84  54  35 N3        29.92F
$$




USA.gov is the U.S. government's official web portal to all federal, state and local government web resources and services.